Weather History for Berlin Tegel, Germany

Change the Weather History Date:

Monday, July 8, 2013

  Actual Average Record
Temperature  
Mean Temperature 67 °F -  
Max Temperature 80 °F 73 °F 84 °F (2002)
Min Temperature 54 °F 56 °F 50 °F (1998)
Cooling Degree Days 2    
Growing Degree Days 17 (Base 50)    
Moisture  
Dew Point 54 °F    
Average Humidity 57    
Maximum Humidity 94    
Minimum Humidity 29    
Precipitation  
Precipitation 0.00 in - - ()
Sea Level Pressure  
Sea Level Pressure 30.41 in    
Wind  
Wind Speed 3 mph ()    
Max Wind Speed 7 mph    
Max Gust Speed -    
Visibility 9.7 miles    
Events Fog    
Averages and records for this station are not official NWS values.
T = Trace of Precipitation, MM = Missing Value Source: Averaged Metar Reports

Daily Weather History Graph

Daily Weather History Graph

Search for Another Location

Airport:

Trip Planner

Search our weather history database for the weather conditions in past years. The results will help you decide how hot, cold, wet, or windy it might be!

Date:

Astronomy

Jul. 08, 2013 Rise Set
Actual Time 4:53 AM CEST 9:29 PM CEST
Civil Twilight 4:05 AM CEST 10:17 PM CEST
Nautical Twilight 2:49 AM CEST 11:32 PM CEST
Astronomical Twilight 1:44 AM CEST 12:39 AM CEST
Moon 5:20 AM CEST (7/8) 9:05 PM CEST (7/8)
Length of Visible Light 18h 11m
Length of Day
16h 35m
New Moon, 0% of the Moon is Illuminated
Jul 8
New Moon
Jul 16
First Quarter
Jul 22
Full
Jul 29
Last Quarter
Aug 6
New

Hourly Weather History & Observations

Time (CEST) Temp. Heat Index Dew Point Humidity Pressure Visibility Wind Dir Wind Speed Gust Speed Precip Events Conditions
12:00 AM 66 °F - 53 °F 54% 30.44 in 28 mi ENE 6.7 mph - -   Clear
12:20 AM 64.4 °F - 53.6 °F 68% 30.45 in - ENE 4.6 mph - N/A   Clear
12:50 AM 64.4 °F - 53.6 °F 68% 30.45 in - NNE 1.2 mph - N/A   Clear
1:00 AM 64 °F - 53 °F 59% 30.45 in 28 mi ENE 4.5 mph - -  
1:20 AM 62.6 °F - 53.6 °F 72% 30.45 in - NNE 1.2 mph - N/A   Clear
1:50 AM 62.6 °F - 53.6 °F 72% 30.45 in - Variable 1.2 mph - N/A   Clear
2:00 AM 62 °F - 53 °F 64% 30.45 in 28 mi ENE 2.2 mph - -  
2:20 AM 60.8 °F - 51.8 °F 72% 30.45 in - NW 1.2 mph - N/A   Clear
2:50 AM 59.0 °F - 51.8 °F 77% 30.45 in - WNW 1.2 mph - N/A   Clear
3:00 AM 58 °F - 52 °F 75% 30.45 in 28 mi North 2.2 mph - -  
3:20 AM 57.2 °F - 51.8 °F 82% 30.45 in - NW 1.2 mph - N/A   Clear
3:50 AM 55.4 °F - 51.8 °F 88% 30.45 in 6.2 mi Variable 1.2 mph - N/A Fog Shallow Fog
4:00 AM 56 °F - 51 °F 80% 30.45 in 28 mi North 2.2 mph - - Fog Patches of Fog
4:20 AM 55.4 °F - 51.8 °F 88% 30.45 in 6.2 mi NW 1.2 mph - N/A Fog Shallow Fog
4:50 AM 55.4 °F - 51.8 °F 88% 30.45 in 6.2 mi SW 1.2 mph - N/A Fog Shallow Fog
5:00 AM 55 °F - 51 °F 81% 30.45 in 28 mi NNW 2.2 mph - - Fog Patches of Fog
5:20 AM 53.6 °F - 51.8 °F 94% 30.45 in 6.2 mi Variable 1.2 mph - N/A Fog Shallow Fog
5:50 AM 55.4 °F - 51.8 °F 88% 30.45 in - West 1.2 mph - N/A   Clear
6:00 AM 56 °F - 52 °F 83% 30.45 in 25 mi North 2.2 mph - -   Clear
6:20 AM 57.2 °F - 53.6 °F 88% 30.45 in - Variable 1.2 mph - N/A   Clear
6:50 AM 60.8 °F - 55.4 °F 82% 30.45 in - Variable 1.2 mph - N/A   Clear
7:00 AM 60 °F - 55 °F 77% 30.45 in 28 mi North 4.5 mph - -   Clear
7:20 AM 62.6 °F - 55.4 °F 77% 30.45 in - Variable 1.2 mph - N/A   Clear
7:50 AM 64.4 °F - 55.4 °F 73% 30.45 in - NW 3.5 mph - N/A   Clear
8:00 AM 64 °F - 56 °F 67% 30.45 in 25 mi North 2.2 mph - -   Clear
8:20 AM 64.4 °F - 55.4 °F 73% 30.45 in - NW 4.6 mph - N/A   Clear
8:50 AM 66.2 °F - 57.2 °F 73% 30.45 in - Variable 3.5 mph - N/A   Clear
9:00 AM 67 °F - 57 °F 61% 30.45 in 25 mi North 4.5 mph - -   Clear
9:20 AM 68.0 °F - 55.4 °F 64% 30.45 in - NNW 3.5 mph - N/A   Clear
9:50 AM 68.0 °F - 57.2 °F 68% 30.45 in - WNW 4.6 mph - N/A   Clear
10:00 AM 68 °F - 56 °F 58% 30.45 in 25 mi NW 4.5 mph - -   Clear
10:20 AM 69.8 °F - 57.2 °F 64% 30.45 in - Variable 4.6 mph - N/A   Clear
10:50 AM 71.6 °F - 55.4 °F 57% 30.45 in 6.2 mi NNW 5.8 mph - N/A   Partly Cloudy
11:00 AM 71 °F - 56 °F 50% 30.45 in 25 mi NNW 6.7 mph - -   Scattered Clouds
11:20 AM 71.6 °F - 53.6 °F 53% 30.45 in 6.2 mi Variable 3.5 mph - N/A   Partly Cloudy
11:50 AM 75.2 °F - 57.2 °F 53% 30.42 in 6.2 mi Variable 2.3 mph - N/A   Partly Cloudy
12:00 PM 74 °F - 56 °F 43% 30.44 in 25 mi ENE 2.2 mph - -   Scattered Clouds
12:20 PM 75.2 °F - 50.0 °F 41% 30.42 in - ENE 5.8 mph - N/A   Clear
12:50 PM 75.2 °F - 50.0 °F 41% 30.42 in - NE 6.9 mph - N/A   Clear
1:00 PM 76 °F - 50 °F 30% 30.44 in 25 mi NE 6.7 mph - -   Scattered Clouds
1:20 PM 77.0 °F - 50.0 °F 39% 30.42 in - NNE 5.8 mph - N/A   Clear
1:50 PM 77.0 °F - 51.8 °F 41% 30.42 in - NNW 6.9 mph - N/A   Clear
2:00 PM 77 °F - 52 °F 31% 30.42 in 25 mi NE 4.5 mph - -  
2:20 PM 77.0 °F - 53.6 °F 44% 30.39 in - WNW 5.8 mph - N/A   Clear
2:50 PM 78.8 °F - 53.6 °F 42% 30.39 in - NW 6.9 mph - N/A   Clear
3:00 PM 78 °F - 54 °F 33% 30.40 in 25 mi East 4.5 mph - -  
3:20 PM 78.8 °F - 55.4 °F 44% 30.39 in - WNW 5.8 mph - N/A   Clear
3:50 PM 78.8 °F - 53.6 °F 42% 30.39 in - NNW 5.8 mph - N/A   Clear
4:00 PM 79 °F - 53 °F 29% 30.39 in 25 mi NE 4.5 mph - -  
4:20 PM 78.8 °F - 53.6 °F 42% 30.36 in - NW 5.8 mph - N/A   Clear
4:50 PM 80.6 °F 80.5 °F 55.4 °F 42% 30.36 in - WNW 5.8 mph - N/A   Clear
5:00 PM 80 °F - 56 °F 33% 30.38 in 25 mi WSW 2.2 mph - -  
5:20 PM 78.8 °F - 53.6 °F 42% 30.36 in - NW 4.6 mph - N/A   Clear
5:50 PM 80.6 °F 80.5 °F 55.4 °F 42% 30.36 in - North 5.8 mph - N/A   Clear
6:00 PM 80 °F - 57 °F 35% 30.37 in 25 mi North 2.2 mph - -   Scattered Clouds
6:20 PM 78.8 °F - 53.6 °F 42% 30.36 in - NW 3.5 mph - N/A   Clear
6:50 PM 78.8 °F - 53.6 °F 42% 30.36 in - NNW 4.6 mph - N/A   Clear
7:00 PM 79 °F - 54 °F 31% 30.36 in 22 mi NE 6.7 mph - -   Scattered Clouds
7:20 PM 78.8 °F - 53.6 °F 42% 30.33 in - NNW 3.5 mph - N/A   Clear
7:50 PM 78.8 °F - 55.4 °F 44% 30.33 in - NNW 3.5 mph - N/A   Clear
8:00 PM 79 °F - 55 °F 32% 30.35 in 19 mi NNE 4.5 mph - -   Scattered Clouds
8:20 PM 78.8 °F - 55.4 °F 44% 30.33 in - NNW 4.6 mph - N/A   Clear
8:50 PM 77.0 °F - 55.4 °F 47% 30.33 in - North 3.5 mph - N/A   Clear
9:00 PM 77 °F - 55 °F 35% 30.35 in 16 mi North 4.5 mph - -   Scattered Clouds
9:20 PM 75.2 °F - 55.4 °F 50% 30.33 in - North 3.5 mph - N/A   Clear
9:50 PM 73.4 °F - 55.4 °F 53% 30.33 in - NE 3.5 mph - N/A   Clear
10:00 PM 74 °F - 56 °F 43% 30.35 in 16 mi East 4.5 mph - -   Clear
10:20 PM 73.4 °F - 57.2 °F 57% 30.33 in - NE 3.5 mph - N/A   Clear
10:50 PM 71.6 °F - 57.2 °F 60% 30.33 in - NW 2.3 mph - N/A   Clear
11:00 PM 72 °F - 57 °F 49% 30.35 in 12 mi NE 2.2 mph - -   Clear
11:20 PM 69.8 °F - 59.0 °F 68% 30.36 in - North 5.8 mph - N/A   Clear
11:50 PM 69.8 °F - 59.0 °F 68% 30.36 in - NNE 4.6 mph - N/A   Clear